Terminal Aerodrome Forecast
Issued by NWS St Louis, MO

Home | Current Version | Previous Version | Text Only | Print | Product List | Glossary On
Versions: 1 2 3 4 5 6 7 8 9 10 11 12 13 14 15 16 17 18 19 20 21 22 23 24 25 26 27 28 29 30 31 32 33 34 35 36 37 38 39 40
000
FTUS43 KLSX 251730
TAFCOU
TAF
KCOU 251730Z 2518/2618 17010KT P6SM VCTS BKN040CB
      TEMPO 2519/2523 4SM -TSRA BKN025CB
     FM260100 12007KT P6SM BKN150
     FM261500 16010G18KT P6SM BKN050=

USA.gov is the U.S. government's official web portal to all federal, state and local government web resources and services.